Regional Weather Roundup
Issued by NWS

Home | Current Version | Previous Version | Text Only | Print | Product List | Glossary Off
Versions: 1 2 3 4 5 6 7 8 9 10 11 12 13 14 15 16 17 18 19 20 21 22 23 24 25 26 27 28

000
ASUS45 KBOU 291510
RWRCO

WEATHER ROUNDUP FOR COLORADO
NATIONAL WEATHER SERVICE DENVER/BOULDER CO
900 AM MDT THU SEP 29 2016

NOTE: "FAIR" INDICATES FEW OR NO CLOUDS BELOW 12000 FEET WITH NO
SIGNIFICANT WEATHER AND/OR OBSTRUCTIONS TO VISIBILITY.

COZ001>005-013-030-031-291600-
...NORTHWEST COLORADO...

CITY           SKY/WX    TMP DP  RH WIND       PRES   REMARKS
CRAIG          FAIR      52  40  63 CALM      30.44R
HAYDEN         FAIR      54  32  43 E8        30.44S
MEEKER         LGT RAIN  50  44  80 SE8       30.46R
MOUNT WERNER   NOT AVBL
STEAMBOAT SPGS FAIR      48  35  62 CALM      30.46S
WALDEN           N/A     50  30  46 CALM      30.54R
$$

COZ006>008-011-291600-
...WEST CENTRAL VALLEYS...

CITY           SKY/WX    TMP DP  RH WIND       PRES   REMARKS
GRAND JUNCTION CLOUDY    59  54  83 NW3       30.38R
MONTROSE       PTSUNNY   59  43  55 S5        30.43R
EAGLE          SUNNY     48  30  49 CALM      30.51R
RIFLE          FAIR      58  41  53 SE8       30.41S
DELTA          FAIR      61  41  47 N6        30.40R
NUCLA          DRIZZLE   55  50  82 S3        30.47R
$$

COZ017>023-064>068-291600-
...SOUTHWEST COLORADO...

CITY           SKY/WX    TMP DP  RH WIND       PRES   REMARKS
DURANGO        HVY RAIN  52  47  83 NE3       30.53R
CORTEZ         LGT RAIN  58  51  78 NW6       30.44R
PAGOSA SPRINGS CLOUDY    54  32  44 CALM      30.56R
TELLURIDE      LGT RAIN  50  41  70 S14G20    30.62R
WOLF CREEK PAS FAIR      43  28  56 MISG      30.80R
$$

COZ009-010-012-014-032>034-037-058>063-291600-
...CENTRAL COLORADO...

CITY           SKY/WX    TMP DP  RH WIND       PRES   REMARKS
ASPEN          FAIR      53  33  46 CALM      30.50S
BUENA VISTA    FAIR      53  28  38 NW6       30.57S
COPPER MTN     FAIR      54  27  35 S12       30.77S
BERTHOUD PASS  FAIR      41  28  60 N7        30.79S
COTTONWOOD PAS CLOUDY    54  25  32 CALM      30.66R
GUNNISON       FAIR      46  30  53 CALM      30.55S
KREMMLING      FAIR      46  30  53 CALM      30.54S
LEADVILLE      CLOUDY    43  26  51 CALM      30.64S
SALIDA         FAIR      50  30  45 NW3       30.62S
SUNLIGHT       PTSUNNY   52  32  46 CALM      30.71R
WILKERSON PASS FAIR      45  23  42 SW9G17    30.75R
$$

COZ069>075-291600-
...SAN LUIS VALLEY/SANGRE DE CRISTO MOUNTAINS...

CITY           SKY/WX    TMP DP  RH WIND       PRES   REMARKS
ALAMOSA        FAIR      49  29  46 CALM      30.55R
LA VETA PASS   FAIR      50  27  40 MISG      30.68R
SAGUACHE       NOT AVBL
$$

COZ035-036-038>040-291600-
...NORTHERN COLORADO FRONT RANGE...

CITY           SKY/WX    TMP DP  RH WIND       PRES   REMARKS
DENVER INTL AP FAIR      60  38  43 W6        30.37S
DMNS CITY PARK   N/A     60  36  39 SW2       30.37F
AURORA         MOSUNNY   60  38  45 CALM      30.39R
FRONT RANGE AP MOSUNNY   63  37  39 W7        30.38S
ERIE MUNI ARPT FAIR      57  38  50 CALM      30.36F
BOULDER MUN AP FAIR      59  37  44 SE3       30.37S
CENTENNIAL     FAIR      60  36  40 N5        30.38S
BROOMFIELD     MOSUNNY   59  37  44 NE3       30.39R
FORT COLLINS   FAIR      54  43  66 N7        30.37S
LONGMONT       FAIR      59  41  51 CALM      30.38S
$$

COZ041-046-047-076>085-087-088-291600-
...PIKES PEAK/PALMER DIVIDE AND SOUTHERN FOOTHILLS...

CITY           SKY/WX    TMP DP  RH WIND       PRES   REMARKS
COLO. SPRINGS  FAIR      55  40  56 SW3       30.46S
A. F. ACADEMY  FAIR      52  37  58 SE3       30.46R
SCHRIEVER AFB  NOT AVBL
ELLICOTT       NOT AVBL
FALCON         FAIR      55  39  56 SW5       30.48S
FORT CARSON    FAIR      55  40  57 NE2       30.43S
LIMON          FAIR      54  41  61 S15G21    30.43S
MONUMENT HILL  FAIR      61  32  33 S12       30.48R
TRINIDAD       FAIR      60  32  34 NW5       30.44R
$$

COZ042>045-048>051-090-091-291600-
...NORTHEAST COLORADO...

CITY           SKY/WX    TMP DP  RH WIND       PRES   REMARKS
GREELEY ARPT   FAIR      52  41  66 NW3       30.37R
AKRON          FAIR      61  42  49 S17       30.38S
BURLINGTON     FAIR      58  38  47 S20       30.41S
WRAY           FAIR      54  39  58 E5        30.40
STERLING       FAIR      55  43  62 CALM      30.36S
HOLYOKE        FAIR      59  43  55 S7        30.40S
FORT MORGAN    FAIR      57  40  51 S6        30.37S
$$

COZ086-089-092>099-291600-
...SOUTHEAST COLORADO...

CITY           SKY/WX    TMP DP  RH WIND       PRES   REMARKS
PUEBLO         FAIR      58  41  53 CALM      30.41S
LA JUNTA       FAIR      54  41  61 SW7       30.39R
LAMAR          FAIR      63  39  41 SE9       30.39R
SPRINGFIELD      N/A     58  42  55 S17       30.44R
$$




USA.gov is the U.S. government's official web portal to all federal, state and local government web resources and services.